GFSMW_sfc_rhum_072.txt.gz
RH
43 46 48 48 46 50 49 55 62 69 67 62 55 57 72 81 83 74 70 67 66 57 53 44 47 43 41 40 44 42 44 39 39 39 35 34 38 38 32 31 29 30 30
45 43 45 50 51 51 54 56 58 65 62 48 47 53 62 78 76 61 70 62 61 56 51 48 46 44 42 46 46 45 41 41 42 42 39 35 30 34 33 32 31 37 33
47 45 45 48 50 50 53 50 51 53 57 52 46 55 60 66 68 65 71 62 62 54 47 48 46 48 41 42 47 46 48 43 44 47 39 31 28 26 26 36 34 38 37
33 40 42 44 49 48 46 45 45 50 56 58 55 62 56 62 61 67 63 55 58 49 46 47 49 48 40 45 46 44 48 48 43 39 35 40 37 28 28 24 30 34 37
36 33 38 39 40 45 50 52 51 56 58 64 62 61 60 61 70 89 82 62 58 51 46 48 50 48 42 48 54 54 53 43 40 32 31 34 34 37 41 42 34 29 27
35 37 34 36 39 51 58 60 58 59 60 65 68 68 67 73 76 86 83 60 52 52 52 45 49 49 51 53 54 66 68 51 38 33 33 33 33 33 36 37 35 33 28
34 36 36 38 39 49 60 61 59 57 59 67 70 77 74 74 72 74 71 54 52 53 54 51 53 49 50 72 82 76 46 42 40 41 34 36 38 37 37 39 39 35 29
28 34 35 38 40 49 58 58 56 56 58 67 74 74 70 70 68 71 60 54 52 50 51 53 50 50 81 86 78 55 42 44 46 47 45 38 38 37 37 37 41 47 37
27 29 33 37 42 50 56 57 52 51 59 70 74 75 74 74 73 73 63 56 53 48 56 54 62 81 92 85 60 45 45 46 48 50 50 45 39 41 40 38 37 42 51
29 29 30 36 40 44 47 55 48 48 54 62 70 74 72 72 78 74 63 58 56 54 59 70 86 94 86 58 48 44 43 46 46 43 47 46 41 41 41 38 38 38 42
32 31 32 33 39 43 47 51 49 45 51 61 70 76 74 81 83 74 68 63 60 62 76 91 94 76 52 44 46 44 42 45 46 45 48 48 46 44 42 40 38 40 39
31 32 35 37 40 46 48 48 50 51 53 59 72 82 86 83 84 81 74 75 81 86 94 90 68 49 39 42 42 42 38 43 45 45 47 48 38 47 46 42 44 41 39
28 36 40 44 44 45 49 48 55 58 60 66 78 80 82 84 86 89 90 95 92 84 80 59 47 42 41 38 40 40 42 44 44 45 46 45 46 48 44 42 41 38 33
24 30 39 44 49 51 54 56 62 62 65 71 76 81 82 83 87 94 95 94 87 75 66 59 45 44 38 38 40 38 41 42 41 45 46 45 46 47 46 42 42 39 41
21 27 34 42 51 58 62 62 67 69 72 72 75 76 80 86 94 93 92 78 60 70 67 42 38 41 42 35 38 36 40 41 41 43 43 47 52 67 66 43 45 44 46
24 25 36 47 57 63 65 69 73 72 68 68 72 75 83 86 88 88 71 74 70 55 39 43 47 46 34 63 75 66 42 38 39 42 41 39 55 62 83 84 84 72 57
42 41 46 54 59 63 64 73 70 67 69 69 74 75 74 72 61 54 52 56 51 47 52 49 44 43 41 72 79 82 43 40 40 40 40 37 31 53 48 64 87 88 89
53 55 56 58 58 58 60 64 62 63 66 64 59 50 53 59 56 45 49 57 53 50 45 44 43 43 37 69 78 81 48 43 42 42 43 45 46 46 50 49 50 49 49
56 55 55 58 59 60 56 54 58 59 56 50 45 50 53 50 49 65 61 47 44 43 41 37 41 43 42 70 79 75 52 49 50 45 46 45 48 56 73 62 68 60 53
48 51 53 53 55 53 49 50 51 47 44 43 48 44 46 63 54 46 43 40 39 38 38 40 44 53 51 66 81 74 67 74 68 60 56 65 62 70 82 79 80 88 64
47 47 48 50 50 46 43 42 40 42 46 48 49 49 44 40 40 41 40 40 42 48 59 69 62 54 55 55 74 78 66 66 67 61 63 69 77 84 86 90 80 85 66
45 43 45 44 41 39 41 40 43 43 45 41 41 41 41 38 39 44 45 43 43 47 59 99 70 57 54 64 64 73 75 70 76 66 60 60 78 83 89 95 89 87 89
40 39 39 42 40 38 40 43 40 37 40 44 46 44 42 39 35 37 36 36 34 45 58 64 63 63 57 51 66 72 77 78 81 73 74 78 84 84 95 99 97 98 99
40 39 41 42 43 39 38 38 42 43 40 43 43 40 38 34 32 26 31 40 49 54 52 59 68 71 57 56 66 75 75 76 81 80 79 81 84 86 90 97 97 99 96
40 39 44 46 46 44 43 41 40 40 40 39 36 36 39 42 41 39 47 50 53 64 66 65 67 82 81 73 74 74 78 81 82 96 90 81 76 78 81 91 94 93 88
41 45 45 46 44 41 40 36 32 32 32 34 37 51 48 49 44 42 52 69 66 66 68 70 75 75 71 72 71 73 75 72 74 79 87 98 99 91 85 96 93 89 91

GFSMW_sfc_rhum_075.txt.gz
RH
50 50 53 50 41 48 47 48 54 68 70 70 54 50 50 71 82 74 66 64 57 56 54 47 51 43 40 40 47 44 47 42 40 41 37 34 39 40 34 31 30 29 29
40 47 50 50 42 45 43 45 47 60 61 46 43 41 45 65 69 64 67 65 69 66 53 50 48 44 40 47 48 46 43 42 43 46 43 39 33 35 35 32 32 36 31
38 39 42 44 45 45 46 43 50 56 60 44 37 40 57 58 71 70 65 63 60 55 52 49 47 46 44 46 50 48 48 45 44 47 47 41 35 33 27 30 31 37 37
31 35 39 44 46 45 45 45 46 55 58 60 43 48 64 61 59 64 64 69 74 61 51 47 46 49 44 46 49 45 49 51 47 54 37 41 42 42 41 30 28 29 35
29 33 35 36 39 43 45 46 44 42 47 54 60 48 50 50 61 70 67 77 75 63 49 46 49 52 45 48 49 55 56 49 60 61 38 37 34 36 39 41 36 30 26
26 26 29 30 33 44 49 48 43 40 44 62 63 58 56 52 61 71 72 73 75 60 53 46 51 51 50 52 55 62 60 68 55 39 38 35 34 34 36 40 39 33 29
27 26 24 29 31 36 44 47 45 44 45 58 68 65 62 61 72 72 70 74 68 60 55 52 55 53 53 54 65 69 74 64 55 45 39 32 34 36 38 39 38 37 30
23 26 27 27 28 36 42 46 46 48 46 52 63 65 62 63 65 66 65 71 68 58 55 58 55 53 53 63 66 69 72 66 61 49 45 39 36 36 36 36 40 47 38
19 20 24 29 30 34 39 47 47 46 46 51 58 67 67 68 68 66 69 70 70 55 61 60 56 57 63 78 82 75 66 51 48 52 50 46 42 40 37 37 38 44 54
21 20 20 26 29 33 35 49 47 42 43 46 57 69 68 70 72 74 76 80 80 70 62 64 63 80 91 92 86 65 46 46 47 43 46 46 42 39 38 36 38 38 43
21 22 22 23 27 32 37 44 45 39 39 45 56 72 76 70 81 81 91 94 82 66 69 83 90 92 94 88 66 48 48 43 45 45 45 46 44 42 40 39 38 38 40
18 21 23 24 26 32 35 40 45 40 38 45 56 76 81 92 90 89 89 89 89 89 93 92 88 92 77 59 54 51 42 42 42 44 45 43 33 43 44 42 44 42 41
16 20 24 27 29 33 37 39 43 42 38 52 72 87 89 87 85 86 90 92 95 96 92 90 88 78 65 51 41 39 42 43 42 43 41 40 40 45 44 44 42 41 32
15 19 24 28 32 34 39 40 44 46 53 77 78 86 87 87 90 91 88 90 93 92 93 92 88 79 51 39 37 38 40 39 37 38 39 39 40 42 45 43 46 40 44
13 16 20 27 34 40 43 43 52 60 63 73 80 89 90 89 86 87 89 91 89 87 72 74 74 52 37 35 41 38 37 36 36 38 34 38 44 65 61 44 51 51 48
16 17 19 24 38 46 52 56 64 66 69 77 83 87 89 87 92 91 88 85 72 69 71 62 40 44 40 72 64 59 40 37 36 36 34 32 46 45 73 74 75 64 58
27 27 26 33 45 52 66 72 73 73 75 80 86 84 84 85 82 73 70 65 59 55 52 44 49 48 42 71 72 78 44 39 37 38 38 34 27 47 38 56 79 79 82
36 39 40 45 48 59 67 73 72 76 79 79 76 74 72 64 53 49 47 49 50 52 52 48 44 43 36 73 76 81 49 45 44 44 43 45 46 47 52 49 53 52 52
41 43 44 48 53 66 70 71 73 73 72 67 58 52 48 47 50 53 53 56 53 49 46 39 37 38 40 75 79 72 53 54 55 49 48 46 50 59 74 68 68 63 66
42 46 48 50 53 55 56 61 61 56 53 47 44 43 45 44 48 54 52 46 42 36 33 34 38 55 48 80 79 65 62 66 62 51 45 59 56 71 81 78 82 97 74
42 43 45 48 48 46 48 51 49 45 41 39 39 42 44 48 46 43 40 37 37 40 56 68 64 49 48 52 69 73 56 62 66 61 58 56 68 74 77 85 81 91 79
43 41 44 45 43 41 43 41 41 39 40 42 42 40 40 36 36 39 40 39 40 50 54 90 67 56 54 66 69 72 77 76 75 70 68 66 75 80 81 81 79 85 94
38 38 40 42 40 38 36 40 42 40 41 41 42 42 39 35 33 36 37 38 31 43 54 60 60 60 57 49 73 68 73 72 75 72 76 82 84 87 84 88 90 90 98
37 37 40 42 44 41 39 38 37 37 37 41 42 38 36 33 28 23 28 38 45 51 50 54 64 68 56 52 60 62 63 67 68 70 72 77 83 84 89 89 84 91 96
37 37 40 42 40 37 37 37 38 39 39 38 35 35 34 36 38 36 46 48 58 67 65 64 65 78 77 67 70 70 70 74 74 81 81 77 77 77 75 81 77 85 97
38 41 42 42 40 38 38 36 34 32 33 33 35 48 47 45 38 38 60 65 69 70 71 70 72 71 67 71 70 68 70 71 69 71 73 81 88 86 80 81 85 95 96

GFSMW_sfc_rhum_078.txt.gz
RH
70 73 73 69 75 80 80 77 77 80 81 88 74 66 69 84 90 85 77 80 78 74 77 70 73 73 66 64 66 68 64 64 65 66 68 68 63 56 54 55 51 44 42
56 64 61 64 69 73 74 75 73 78 76 77 62 58 64 76 86 83 82 82 80 77 72 74 72 72 68 72 70 69 72 69 70 73 71 73 69 65 59 59 53 55 47
56 55 55 60 60 65 66 62 67 70 68 69 62 57 69 81 86 88 85 78 84 84 84 73 72 70 71 74 75 70 67 75 73 66 70 72 70 65 58 64 59 52 57
44 50 53 57 54 56 55 51 50 64 67 68 56 58 58 72 74 85 77 75 80 76 69 65 70 71 71 72 75 67 73 69 75 72 59 64 61 70 69 57 55 60 54
39 44 46 51 49 52 53 53 50 57 62 67 74 60 74 75 81 79 83 84 85 84 90 76 71 72 71 75 72 78 70 75 71 69 57 59 65 68 68 67 59 53 52
34 36 40 43 45 54 57 57 55 57 62 68 70 74 72 71 72 81 87 85 85 86 80 69 70 74 70 73 79 79 78 75 66 66 60 61 58 58 64 69 66 63 53
34 39 37 40 45 50 55 57 55 53 56 70 69 71 71 71 72 78 83 84 85 82 76 73 74 75 72 77 81 83 81 72 73 65 63 61 58 58 61 66 69 65 58
31 32 37 38 39 47 54 54 52 53 48 66 71 70 71 67 74 76 84 79 79 76 73 76 71 76 77 84 82 83 81 74 76 63 67 64 60 61 60 61 68 78 68
25 28 29 36 40 40 50 56 52 50 50 60 71 75 71 74 78 86 85 79 80 75 77 73 80 83 78 82 85 82 79 84 86 79 69 67 66 70 66 62 62 70 84
26 24 27 33 37 40 41 52 52 48 50 53 63 70 74 74 79 85 81 83 87 83 83 82 84 88 90 89 87 89 89 91 80 66 67 69 68 68 68 62 65 67 71
26 26 26 27 33 37 43 49 51 50 51 52 60 70 76 80 88 88 90 92 93 91 92 92 93 94 94 95 96 96 87 71 66 64 66 65 63 70 67 68 68 68 68
21 23 27 28 31 38 40 46 53 53 51 51 59 79 87 87 92 97 95 92 93 92 94 96 94 95 96 97 93 83 68 67 64 62 64 64 49 64 69 72 70 69 66
18 22 26 28 30 34 43 46 54 53 49 51 79 88 95 95 94 93 92 92 93 94 93 91 92 94 91 90 85 71 68 62 62 62 63 61 60 66 68 69 70 68 51
15 18 25 29 33 38 42 44 56 61 77 77 90 95 94 93 94 95 94 92 91 92 92 92 92 92 89 80 70 57 59 59 54 58 59 57 58 62 64 60 68 61 74
15 16 19 30 35 41 48 49 75 81 85 88 90 95 96 96 95 95 94 94 92 92 91 93 93 86 75 63 60 55 55 53 52 55 50 51 60 69 67 50 61 66 66
17 19 19 26 38 46 54 72 79 84 85 91 96 96 95 95 96 95 94 92 91 90 88 83 81 76 58 75 68 58 53 52 54 56 53 51 58 50 66 76 77 69 66
21 26 28 28 50 70 74 79 81 83 86 91 93 95 95 96 94 89 86 84 85 78 78 74 74 66 64 76 76 69 57 58 59 60 59 51 38 62 58 66 73 81 82
31 35 36 52 69 71 76 79 78 84 89 91 90 89 90 88 81 77 75 73 69 68 70 69 61 59 53 78 79 81 65 65 65 67 67 68 68 67 74 71 75 77 74
39 42 46 60 67 72 74 78 82 83 84 85 84 81 77 71 67 62 63 64 66 69 65 59 58 54 71 83 83 72 78 76 76 62 63 62 65 68 67 73 77 76 76
44 47 52 68 74 74 72 76 79 78 79 76 72 67 59 56 56 60 66 69 64 59 53 50 70 66 76 78 74 66 93 83 82 73 64 70 70 75 78 80 83 84 78
45 49 53 60 69 69 68 72 70 68 61 54 52 50 51 52 57 63 61 54 53 70 88 89 78 63 68 76 79 77 86 91 88 84 80 79 78 81 83 82 86 86 80
47 49 54 54 54 55 59 58 55 47 46 47 47 49 51 46 47 56 50 50 65 80 90 93 86 81 75 79 74 71 71 74 87 82 81 80 78 78 79 82 83 84 88
45 45 48 53 52 50 49 49 46 44 48 51 50 49 44 44 43 51 58 60 55 70 88 92 91 93 78 84 75 67 69 73 82 78 78 77 76 79 84 85 86 87 95
43 43 47 48 50 45 43 45 48 47 45 49 52 50 46 41 38 34 45 66 76 83 84 88 90 93 80 87 83 79 84 71 76 79 81 81 81 85 83 80 80 89 91
42 43 48 50 49 46 45 43 43 45 48 50 46 45 48 54 59 59 71 80 77 84 88 88 87 94 94 85 78 76 80 85 78 84 84 82 90 85 82 80 79 80 83
41 45 48 46 42 42 43 43 42 42 44 42 52 73 73 68 63 68 74 76 76 73 73 70 77 84 71 68 68 68 67 67 69 83 85 91 94 94 84 84 85 83 82

GFSMW_sfc_rhum_084.txt.gz
RH
85 87 89 90 90 87 87 84 87 92 89 82 79 80 75 76 90 88 83 88 85 89 95 95 92 83 70 69 66 69 70 75 76 72 77 80 79 66 62 60 57 56 57
83 89 95 90 88 86 83 80 82 90 79 74 62 60 57 89 92 90 90 87 84 86 92 90 89 74 73 73 75 72 77 76 80 77 80 74 69 71 63 67 62 62 59
85 93 89 96 97 90 92 89 84 85 79 73 74 82 85 94 95 95 94 89 86 89 90 86 87 78 70 70 75 74 72 81 83 76 75 82 74 75 68 70 74 66 70
83 88 87 86 97 95 93 86 84 82 78 78 72 75 66 74 90 90 88 93 92 93 92 85 82 78 81 79 73 70 78 81 80 84 72 73 73 72 68 64 63 65 62
89 89 85 83 88 87 91 88 83 83 75 78 78 75 89 87 93 95 93 93 96 95 95 92 88 92 82 78 74 80 81 82 85 81 81 73 77 73 69 69 65 64 64
82 81 78 81 88 82 84 84 77 77 75 78 79 80 81 83 89 88 91 92 94 95 94 89 89 84 82 81 70 72 84 84 82 76 70 68 67 69 74 74 73 67 62
72 76 80 83 84 82 80 77 72 72 70 74 76 81 84 83 82 86 88 94 96 97 94 92 93 86 82 81 75 80 81 80 73 73 73 70 62 61 64 67 72 75 73
66 69 70 75 75 70 69 69 68 71 73 77 79 79 81 79 78 79 88 91 88 88 86 90 93 90 86 87 90 89 90 94 96 94 90 86 76 66 64 64 75 81 78
63 64 63 67 70 70 62 65 66 68 68 74 78 82 84 83 76 85 88 90 87 87 94 94 94 92 90 89 89 94 97 96 96 96 96 91 86 87 73 68 70 77 82
53 60 60 61 62 66 68 68 66 63 61 64 74 77 83 84 81 88 92 90 92 93 96 96 95 94 92 92 92 94 95 94 97 94 92 94 92 82 83 78 80 80 80
48 50 54 56 57 61 67 69 70 65 62 56 67 74 79 84 85 90 91 92 94 96 96 97 96 94 90 89 91 94 97 93 91 92 94 92 85 84 84 84 82 80 83
42 44 46 49 52 58 65 63 69 66 63 65 63 77 83 87 90 90 95 97 98 98 97 96 93 90 87 92 92 94 90 90 92 93 91 87 75 78 79 87 85 86 86
40 42 45 46 47 51 59 61 64 69 68 66 74 85 91 93 95 94 96 98 99 99 96 94 92 88 91 92 91 88 91 93 91 84 83 77 76 82 82 81 83 85 73
27 36 43 47 44 46 53 60 61 65 68 70 78 81 92 94 95 97 97 98 96 96 95 93 89 92 90 91 90 92 94 93 87 82 78 75 73 70 70 71 77 76 86
27 28 39 48 56 60 57 57 62 73 73 74 90 91 97 98 98 98 98 97 96 95 92 93 93 92 91 90 92 89 90 87 78 69 60 62 64 71 73 67 78 83 87
28 27 34 44 54 68 76 92 97 98 91 92 99 99 99 99 99 99 98 98 98 98 96 95 94 95 88 100 98 90 84 72 60 63 62 57 67 81 85 82 81 78 82
28 35 44 58 82 93 95 98 98 97 98 98 98 98 98 98 99 98 98 98 98 96 96 95 94 94 89 95 92 83 66 63 66 67 70 70 62 76 73 76 78 78 78
50 79 92 98 99 99 97 97 95 98 98 98 98 98 98 98 98 96 97 97 96 95 95 95 93 94 84 90 86 79 74 82 79 77 77 78 77 76 82 84 85 83 82
61 90 96 97 98 97 96 96 97 98 98 98 98 96 96 97 95 96 95 94 94 95 94 90 87 84 86 87 86 82 79 75 80 76 76 77 81 80 80 90 92 85 80
91 95 96 97 98 99 97 97 98 96 97 94 92 88 88 90 91 89 88 84 80 74 72 74 77 80 79 85 81 74 86 87 81 77 75 78 81 83 84 88 92 95 89
94 94 95 97 97 95 94 98 97 98 88 86 84 83 82 84 83 84 82 80 76 76 85 85 83 79 80 83 79 74 82 86 85 80 80 80 76 72 70 75 93 94 87
95 94 96 96 95 92 92 96 96 88 84 80 83 77 72 65 69 73 76 76 78 84 88 90 92 91 85 78 74 74 77 74 82 76 80 83 70 70 77 87 74 71 91
93 92 94 94 92 89 88 91 81 70 68 65 64 65 63 58 63 74 79 83 80 84 89 90 92 94 87 84 75 72 70 72 79 75 74 71 72 78 89 71 65 88 96
83 85 86 86 83 73 67 69 68 64 58 56 58 60 65 66 66 66 73 84 87 88 91 96 94 95 90 89 85 80 84 72 73 80 80 84 88 90 88 84 81 90 93
68 67 66 63 64 61 64 61 56 53 56 58 59 63 68 76 79 82 82 82 92 92 92 93 92 97 97 89 78 76 80 87 81 90 90 89 86 82 81 85 82 81 81
56 56 58 61 62 61 60 57 52 51 56 65 74 83 84 84 85 86 92 89 88 85 85 89 91 91 83 68 67 69 67 65 67 87 95 97 96 94 90 93 89 83 87

GFSMW_sfc_rhum_087.txt.gz
RH
93 87 90 93 95 92 92 93 94 93 89 91 82 83 91 93 91 87 84 83 89 94 95 95 94 88 80 77 70 71 71 78 78 76 81 82 78 69 67 64 64 61 68
93 89 92 92 90 91 88 89 89 91 85 81 61 65 74 83 87 88 86 86 85 94 93 94 94 84 79 77 73 71 77 77 82 78 83 79 76 81 71 68 64 64 63
94 85 89 92 91 91 88 84 87 88 79 72 65 67 77 90 89 89 91 88 87 88 93 94 92 89 81 76 72 73 70 78 86 81 76 83 77 80 72 74 78 73 75
87 79 83 85 90 86 90 88 88 87 84 80 72 72 67 67 64 84 88 92 90 90 90 90 91 88 86 83 74 72 76 78 79 88 77 76 76 72 70 67 68 74 72
91 90 94 94 91 84 96 96 88 86 80 84 83 78 76 78 91 95 92 94 94 89 86 91 90 90 83 78 81 81 76 72 75 77 83 78 79 76 71 70 64 67 66
90 90 90 88 97 97 97 97 92 86 82 82 82 85 80 86 91 91 96 96 94 94 95 96 91 89 88 89 87 86 81 76 79 75 73 72 71 74 74 75 72 67 63
88 91 92 92 95 97 97 95 91 88 81 81 78 78 78 85 85 81 88 92 95 96 95 97 97 93 90 90 91 85 80 84 81 77 86 81 82 74 80 78 74 70 68
77 82 83 85 89 90 91 89 86 83 80 80 76 74 76 76 83 82 87 91 87 85 90 95 94 95 93 94 92 93 90 89 94 91 94 91 91 90 87 77 74 76 71
72 72 74 78 86 88 85 85 80 78 75 78 76 76 78 79 79 85 87 88 87 86 89 94 94 94 93 92 92 94 93 91 94 96 95 93 95 92 84 79 76 79 81
68 66 66 72 77 80 82 84 76 72 69 70 71 72 77 79 79 84 86 87 87 89 94 96 95 96 95 95 93 94 92 93 96 94 95 94 92 87 91 82 80 76 75
62 66 64 62 68 75 76 78 76 71 68 65 71 76 80 82 85 87 86 87 89 95 96 96 97 97 97 96 92 90 92 91 94 96 94 92 87 87 86 85 82 81 83
52 57 62 62 63 69 73 70 73 70 68 68 68 74 81 84 88 91 88 90 95 97 97 98 97 98 97 94 92 93 91 92 95 93 90 86 86 88 87 87 84 83 91
55 54 56 62 62 64 68 71 72 69 69 71 74 72 77 85 89 91 94 97 96 98 99 99 98 98 96 95 91 89 90 91 90 90 92 92 92 90 88 84 85 92 79
41 52 57 55 57 59 64 67 69 71 72 73 74 76 77 85 86 89 96 97 98 97 97 98 95 94 94 93 91 89 91 91 91 92 93 90 87 87 81 74 81 78 84
30 42 46 52 53 57 58 63 69 71 72 74 74 76 78 90 94 97 97 96 96 95 93 96 96 93 92 91 91 89 93 95 97 93 87 86 82 78 73 69 75 80 86
30 31 38 45 54 62 63 64 70 74 79 81 83 98 99 99 99 99 99 100 99 99 98 97 96 96 93 100 99 97 97 97 96 88 74 70 82 81 81 81 83 77 79
29 31 34 41 46 74 86 89 95 97 94 98 99 99 99 99 99 99 99 99 99 99 98 98 97 98 98 100 100 96 90 86 85 81 75 66 62 77 70 77 73 77 76
33 61 84 92 97 95 99 99 98 99 99 99 98 99 99 99 99 99 99 99 99 98 98 98 98 98 98 99 97 95 90 85 78 78 76 75 74 81 84 85 85 84 84
59 84 93 98 93 97 97 98 98 98 98 99 99 99 99 99 99 99 99 98 98 98 98 97 97 97 98 96 92 83 80 77 77 74 75 74 81 76 74 84 86 82 80
92 98 99 96 95 97 93 97 99 99 99 98 97 94 94 96 96 96 97 96 95 95 93 92 91 93 94 92 87 83 86 85 79 75 76 75 79 78 74 84 90 97 84
99 98 98 98 97 96 92 98 96 97 92 89 89 87 87 88 88 89 87 83 85 86 91 92 90 88 88 88 84 81 86 85 83 77 76 79 69 67 67 75 93 87 86
98 97 98 99 98 96 96 95 95 87 84 84 85 81 77 77 77 81 80 79 85 91 93 94 93 94 95 93 94 88 77 71 82 74 78 77 69 69 78 86 67 72 87
98 94 96 97 96 95 93 95 87 78 71 65 65 66 66 68 74 82 85 86 85 91 92 92 95 96 95 96 92 76 71 71 77 75 71 72 72 77 89 68 68 84 91
98 94 84 80 83 80 76 69 62 58 60 66 69 70 74 76 75 77 82 89 91 94 95 97 97 97 95 94 88 80 86 80 80 81 77 83 87 90 84 80 79 83 85
69 67 69 69 67 62 60 58 58 58 62 66 69 71 70 76 84 87 90 92 98 99 98 98 97 97 97 94 93 84 84 88 81 91 90 89 85 82 81 80 76 74 73
64 66 68 69 67 66 66 62 59 61 69 80 83 88 89 93 94 95 96 97 96 95 94 92 90 95 90 87 92 91 87 79 71 87 94 96 96 92 86 90 86 79 81

GFSMW_sfc_rhum_090.txt.gz
RH
79 88 91 95 95 95 94 95 96 94 89 92 92 96 93 94 96 86 84 85 86 85 86 89 91 90 83 82 74 73 71 73 74 73 75 76 73 69 66 77 78 73 72
93 90 93 95 94 94 92 92 95 94 80 86 85 92 89 86 94 92 90 87 92 89 86 84 92 89 87 86 79 73 77 76 80 75 79 74 74 80 74 69 70 73 66
96 80 94 96 94 94 92 88 89 92 84 81 84 84 85 89 85 92 92 89 88 95 91 89 91 91 88 84 79 80 73 78 84 81 75 83 79 81 76 78 73 71 73
94 86 78 94 94 92 85 84 85 89 83 77 77 81 76 73 57 81 83 88 90 90 94 95 94 92 90 89 83 83 83 78 78 86 80 77 75 73 71 70 71 78 74
92 92 79 79 87 86 86 84 86 82 77 76 75 74 76 70 82 84 84 89 89 90 92 94 96 96 88 84 84 83 83 88 79 78 83 75 74 74 72 71 66 66 68
94 91 87 78 79 79 88 93 88 89 85 84 84 79 74 80 83 87 93 96 95 95 94 95 94 91 92 91 91 88 86 84 85 73 79 77 73 75 70 71 70 66 64
94 95 97 96 88 87 84 91 89 91 87 87 84 81 80 80 76 75 79 95 95 95 94 97 98 96 95 93 89 89 88 88 87 85 82 80 79 82 86 86 89 90 81
83 91 94 95 94 90 87 88 89 92 89 87 84 82 82 81 82 80 80 83 82 86 92 96 94 94 94 93 91 91 92 90 92 89 90 88 89 87 88 89 90 88 79
79 81 87 89 92 95 95 93 94 91 88 88 86 84 85 83 78 88 93 90 93 90 94 94 94 94 95 94 94 94 94 94 94 91 89 88 92 87 87 83 77 82 85
77 74 78 82 84 88 90 94 90 88 83 84 84 81 83 84 82 88 92 90 92 94 94 95 94 94 97 96 96 96 94 93 94 91 90 89 91 90 90 82 75 76 80
74 72 68 70 76 84 89 91 90 85 82 78 81 81 82 82 84 84 84 88 92 91 92 91 93 96 98 97 96 96 97 96 93 91 92 91 92 91 89 86 83 77 80
66 73 73 73 73 82 86 87 87 84 80 73 71 76 80 82 85 86 83 85 89 89 91 93 96 97 98 98 98 98 98 96 92 90 91 90 91 92 88 88 90 84 83
66 66 75 73 71 75 79 81 82 82 77 77 75 74 80 83 86 86 86 88 91 91 96 95 96 96 96 98 98 96 96 93 89 90 93 92 93 93 97 94 90 88 82
52 66 69 72 70 69 73 76 77 74 76 76 76 78 80 82 84 86 88 92 94 92 96 97 97 95 96 97 96 96 95 94 94 94 93 90 91 91 94 93 92 89 89
33 54 66 65 68 71 70 72 76 78 74 74 76 74 76 83 87 88 92 96 95 94 94 95 98 97 96 96 97 95 95 96 96 97 98 98 97 95 90 87 89 86 79
29 30 44 59 66 66 70 72 75 78 82 81 78 78 84 86 92 92 93 95 96 97 96 98 97 98 97 100 100 97 95 95 98 99 96 95 94 94 93 87 83 80 79
30 33 34 44 56 69 76 82 86 89 90 87 90 97 96 96 98 99 99 99 98 99 99 99 99 98 97 100 100 100 98 98 98 94 91 86 83 83 78 79 75 77 75
34 35 53 87 98 95 96 98 96 99 97 99 99 99 99 99 99 99 99 99 99 99 99 99 99 99 98 99 99 98 97 97 96 94 92 88 83 82 80 78 77 77 76
53 86 97 93 91 93 95 97 98 98 98 99 99 99 99 99 99 99 99 99 98 98 98 97 98 97 98 97 95 92 93 92 90 85 81 80 85 83 82 82 79 76 76
94 98 94 90 91 98 95 97 98 98 98 98 98 98 97 98 98 98 98 97 95 95 93 95 95 95 96 94 91 85 85 86 88 90 94 96 92 83 74 80 82 90 85
97 95 91 93 97 93 91 97 96 97 94 90 89 90 89 92 92 90 89 90 92 92 95 95 93 93 93 94 93 92 93 94 95 94 87 77 75 77 79 82 90 86 77
98 95 96 97 97 92 91 95 95 87 80 76 78 79 81 80 80 84 86 86 90 94 95 96 96 95 95 94 94 94 94 96 95 92 84 85 81 80 87 89 75 72 78
96 93 94 95 92 90 87 90 75 70 72 73 77 76 76 78 78 83 86 90 87 92 94 94 94 95 94 96 95 95 94 89 87 86 90 89 85 87 93 75 75 84 84
87 80 84 83 78 70 66 65 67 67 68 74 77 77 80 82 82 84 87 92 93 93 93 95 96 97 95 95 95 94 95 94 93 94 91 90 90 94 90 91 88 85 86
69 68 71 70 67 63 63 62 66 69 75 76 78 85 86 87 89 92 94 92 97 98 98 98 97 97 97 96 96 94 93 94 94 96 95 95 94 94 93 93 92 92 90
71 74 75 78 78 78 80 78 75 76 81 88 92 94 93 92 91 91 95 96 97 96 96 96 95 97 95 95 94 94 93 94 95 94 95 96 96 95 93 94 92 89 89

GFSMW_sfc_rhum_093.txt.gz
RH
67 72 84 91 93 92 93 95 96 96 95 94 96 95 94 96 96 93 89 86 81 79 80 71 74 67 61 56 58 55 57 52 51 48 49 51 51 52 50 52 50 52 51
73 73 80 92 94 92 89 92 93 96 90 86 94 95 91 91 92 89 87 85 83 82 82 72 76 67 66 65 63 59 67 60 61 47 46 48 49 49 48 46 52 55 46
72 72 82 88 93 92 88 90 88 92 92 88 91 95 95 94 86 84 87 75 77 84 82 74 76 79 71 68 68 67 60 61 61 59 49 59 51 52 55 58 47 52 53
71 68 71 84 86 87 85 85 85 90 88 80 79 86 84 89 78 76 75 84 81 90 87 80 76 75 76 74 72 72 73 63 54 57 58 62 55 50 53 53 55 52 49
71 69 66 71 80 82 84 83 85 83 80 77 80 76 77 78 83 81 76 84 88 89 91 90 86 80 72 78 82 77 72 75 69 65 65 65 55 56 51 46 49 50 65
68 66 63 68 74 82 82 84 85 85 84 82 77 75 77 75 69 76 82 84 81 85 85 82 86 80 76 80 82 84 81 81 81 68 76 72 64 68 78 64 76 68 50
68 69 69 68 74 82 82 82 82 83 81 81 76 75 75 71 65 63 64 76 74 70 72 76 77 74 79 79 78 80 83 84 82 75 77 82 74 71 79 60 86 78 58
66 66 68 69 72 77 78 79 77 76 77 77 75 70 68 64 63 62 61 65 62 63 66 72 70 73 75 78 80 82 83 85 90 86 86 86 77 72 64 76 87 92 80
64 63 65 71 74 82 80 81 78 77 77 76 74 73 72 68 63 65 67 67 65 63 70 72 74 73 75 76 78 84 82 83 86 88 88 87 74 70 65 69 79 80 89
61 62 63 68 70 75 82 84 81 80 78 75 74 71 72 70 67 70 71 69 69 70 69 73 74 73 76 78 81 85 82 89 89 90 91 87 78 77 79 82 86 78 75
55 58 60 62 64 71 76 85 86 81 77 73 74 74 73 72 73 72 71 69 70 69 70 69 72 75 78 84 88 89 88 94 93 93 92 91 87 92 93 95 93 81 73
50 55 56 59 63 68 72 74 80 79 76 72 72 74 76 77 76 76 72 72 73 73 73 72 72 74 82 92 97 97 95 97 97 97 97 95 91 93 92 90 86 74 72
46 55 57 58 60 63 69 69 72 72 70 71 75 73 79 78 80 76 73 74 74 72 70 75 76 82 89 96 94 93 94 95 94 94 96 93 92 93 94 91 86 82 86
40 47 54 56 57 61 64 66 70 69 69 68 70 72 73 74 72 73 74 78 73 71 72 75 79 84 87 90 92 93 95 96 93 92 92 90 92 93 94 92 92 94 95
27 41 46 52 57 60 63 65 67 71 70 69 71 71 70 71 72 76 76 75 76 77 78 83 87 90 91 95 95 96 96 94 96 94 93 94 95 97 94 95 98 97 98
26 25 36 48 55 60 61 64 67 70 70 70 72 68 69 70 76 77 78 80 81 81 86 91 94 95 97 100 100 99 97 96 97 99 99 98 98 98 98 97 97 94 96
30 29 30 39 49 56 62 63 67 71 74 70 68 68 69 69 71 73 78 79 82 85 94 95 97 98 98 100 100 100 99 99 98 98 98 95 93 96 94 94 91 90 89
29 31 36 56 72 76 71 77 72 72 75 77 83 83 83 89 91 90 94 95 99 99 99 98 98 97 95 100 99 98 96 97 97 96 95 95 95 95 95 95 96 97 97
38 57 66 74 82 87 88 89 94 92 95 97 98 98 98 98 98 99 98 98 97 97 97 95 96 96 97 96 95 91 92 92 95 93 95 94 95 96 97 96 95 92 88
83 86 85 87 90 90 85 92 96 96 97 97 97 96 95 96 97 97 97 93 93 94 92 92 92 95 95 93 89 85 89 92 92 92 94 96 94 94 90 85 80 82 80
88 86 85 91 92 88 86 93 94 96 92 90 90 91 90 90 90 91 90 90 92 92 94 95 93 93 93 94 92 89 90 92 92 90 91 92 95 94 91 89 85 88 85
96 93 94 95 90 86 87 91 88 82 80 82 83 83 82 79 82 86 87 86 89 92 94 95 95 94 93 92 92 93 95 96 94 93 91 91 90 89 92 88 88 89 91
91 87 88 87 81 78 74 81 79 73 75 75 78 78 76 77 78 83 85 88 86 91 93 92 92 94 92 94 94 94 94 94 91 90 91 93 94 94 96 96 94 84 83
80 70 67 70 72 68 67 66 68 68 70 76 78 79 80 82 80 80 84 90 92 93 93 94 95 96 93 92 91 88 89 93 89 91 88 91 93 94 92 91 87 86 84
71 68 71 73 74 70 68 64 66 68 74 75 77 79 81 84 87 89 88 88 96 93 91 91 89 92 90 89 89 85 83 81 83 83 80 80 77 82 84 84 84 81 81
75 76 76 78 80 79 76 71 69 72 77 81 82 85 85 82 81 84 91 88 84 83 84 84 84 89 91 88 82 81 79 78 81 74 77 81 82 79 73 78 78 75 77